• în Republica Moldova
  • Lista ţărilor
  • Pe 7 zile
  • Temperatura apei
  • Hartă satelitară
  • Meteo pe hartă
  • Widget-uri
  • user-avatar
    Intrare

    Meteo pe oră la Tibissa

    Astăzi, 21 Iulie, Vineri

    Timp Temperatura Precipitaţii Vânt Presiune Umiditate
    00:00 +30°C° 0 mm 2 m/s 685 mmHg 37%
    01:00 +29°C° 0 mm 2 m/s 685 mmHg 40%
    02:00 +29°C° 0 mm 2 m/s 685 mmHg 41%
    03:00 +28°C° 0 mm 2 m/s 685 mmHg 42%
    04:00 +28°C° 0 mm 2 m/s 684 mmHg 43%
    05:00 +28°C° 0 mm 2 m/s 685 mmHg 42%
    06:00 +29°C° 0 mm 3 m/s 685 mmHg 40%
    07:00 +29°C° 0 mm 3 m/s 685 mmHg 39%
    08:00 +32°C° 0 mm 4 m/s 686 mmHg 32%
    09:00 +35°C° 0 mm 5 m/s 687 mmHg 26%
    10:00 +38°C° 0 mm 6 m/s 687 mmHg 19%
    11:00 +39°C° 0 mm 6 m/s 687 mmHg 18%
    12:00 +39°C° 0 mm 6 m/s 687 mmHg 17%
    13:00 +40°C° 0 mm 6 m/s 687 mmHg 16%
    14:00 +40°C° 0 mm 5 m/s 687 mmHg 15%
    15:00 +40°C° 0 mm 4 m/s 687 mmHg 14%
    16:00 +41°C° 0 mm 4 m/s 687 mmHg 13%
    17:00 +39°C° 0 mm 3 m/s 687 mmHg 14%
    18:00 +39°C° 0 mm 3 m/s 687 mmHg 15%
    19:00 +38°C° 0 mm 3 m/s 687 mmHg 15%
    20:00 +37°C° 0,1 mm 3 m/s 687 mmHg 19%
    21:00 +35°C° 0,1 mm 3 m/s 687 mmHg 22%
    22:00 +34°C° 0,1 mm 4 m/s 688 mmHg 26%
    23:00 +33°C° 0 mm 3 m/s 688 mmHg 27%

    Mâine, 22 Iulie, Sâmbătă

    Timp Temperatura Precipitaţii Vânt Presiune Umiditate
    00:00 +32°C° 0 mm 2 m/s 688 mmHg 29%
    01:00 +31°C° 0 mm 1 m/s 687 mmHg 30%
    02:00 +31°C° 0,1 mm 2 m/s 687 mmHg 32%
    03:00 +30°C° 0,1 mm 2 m/s 687 mmHg 33%
    04:00 +30°C° 0,1 mm 2 m/s 687 mmHg 34%
    05:00 +30°C° 0 mm 1 m/s 687 mmHg 33%
    06:00 +31°C° 0 mm 1 m/s 688 mmHg 32%
    07:00 +31°C° 0 mm 1 m/s 688 mmHg 31%
    08:00 +34°C° 0 mm 2 m/s 688 mmHg 27%
    09:00 +35°C° 0 mm 2 m/s 689 mmHg 23%
    10:00 +37°C° 0 mm 3 m/s 689 mmHg 19%
    11:00 +38°C° 0 mm 3 m/s 689 mmHg 17%
    12:00 +40°C° 0 mm 4 m/s 690 mmHg 16%
    13:00 +41°C° 0 mm 4 m/s 690 mmHg 14%
    14:00 +42°C° 0 mm 4 m/s 689 mmHg 14%
    15:00 +42°C° 0 mm 4 m/s 689 mmHg 13%
    16:00 +42°C° 0 mm 4 m/s 689 mmHg 13%
    17:00 +41°C° 0 mm 4 m/s 689 mmHg 14%
    18:00 +40°C° 0 mm 5 m/s 689 mmHg 16%
    19:00 +39°C° 0 mm 6 m/s 689 mmHg 18%
    20:00 +37°C° 0 mm 5 m/s 689 mmHg 19%
    21:00 +36°C° 0 mm 5 m/s 689 mmHg 21%
    22:00 +35°C° 0 mm 4 m/s 690 mmHg 23%
    23:00 +34°C° 0 mm 4 m/s 690 mmHg 24%

    Poimâine, 23 Iulie, Duminică

    Timp Temperatura Precipitaţii Vânt Presiune Umiditate
    00:00 +34°C° 0 mm 3 m/s 689 mmHg 25%
    01:00 +33°C° 0 mm 3 m/s 689 mmHg 26%
    02:00 +31°C° 0 mm 2 m/s 689 mmHg 27%
    03:00 +31°C° 0 mm 2 m/s 689 mmHg 28%
    04:00 +30°C° 0 mm 1 m/s 689 mmHg 30%
    05:00 +31°C° 0 mm 2 m/s 689 mmHg 28%
    06:00 +33°C° 0 mm 3 m/s 689 mmHg 27%
    07:00 +34°C° 0 mm 4 m/s 689 mmHg 25%
    08:00 +36°C° 0 mm 5 m/s 690 mmHg 22%
    09:00 +39°C° 0 mm 6 m/s 690 mmHg 18%
    10:00 +41°C° 0 mm 7 m/s 691 mmHg 14%
    11:00 +42°C° 0 mm 6 m/s 691 mmHg 13%
    12:00 +43°C° 0 mm 5 m/s 691 mmHg 12%
    13:00 +43°C° 0 mm 4 m/s 691 mmHg 10%
    14:00 +43°C° 0 mm 4 m/s 690 mmHg 10%
    15:00 +43°C° 0 mm 4 m/s 690 mmHg 10%
    16:00 +43°C° 0 mm 4 m/s 690 mmHg 10%
    17:00 +42°C° 0 mm 4 m/s 690 mmHg 12%
    18:00 +41°C° 0 mm 5 m/s 690 mmHg 14%
    19:00 +40°C° 0 mm 5 m/s 690 mmHg 16%
    20:00 +38°C° 0 mm 4 m/s 690 mmHg 18%
    21:00 +37°C° 0 mm 4 m/s 690 mmHg 20%
    22:00 +35°C° 0 mm 3 m/s 690 mmHg 22%
    23:00 +35°C° 0,1 mm 3 m/s 689 mmHg 23%

    24 Iulie, Luni

    Timp Temperatura Precipitaţii Vânt Presiune Umiditate
    00:00 +34°C° 0,1 mm 3 m/s 689 mmHg 25%
    01:00 +32°C° 0,1 mm 2 m/s 689 mmHg 27%
    02:00 +31°C° 0 mm 3 m/s 689 mmHg 28%
    03:00 +31°C° 0 mm 3 m/s 688 mmHg 30%
    04:00 +31°C° 0 mm 3 m/s 688 mmHg 31%
    05:00 +31°C° 0 mm 3 m/s 688 mmHg 30%
    06:00 +31°C° 0 mm 3 m/s 688 mmHg 30%
    07:00 +31°C° 0 mm 2 m/s 688 mmHg 29%
    08:00 +35°C° 0 mm 3 m/s 688 mmHg 24%
    09:00 +37°C° 0 mm 5 m/s 689 mmHg 19%
    10:00 +41°C° 0 mm 6 m/s 689 mmHg 14%
    11:00 +41°C° 0 mm 6 m/s 689 mmHg 13%
    12:00 +43°C° 0 mm 7 m/s 689 mmHg 13%
    13:00 +43°C° 0 mm 7 m/s 689 mmHg 12%
    14:00 +41°C° 0,1 mm 7 m/s 688 mmHg 13%
    15:00 +41°C° 0,1 mm 6 m/s 688 mmHg 14%
    16:00 +40°C° 0,1 mm 6 m/s 687 mmHg 15%
    17:00 +39°C° 0 mm 6 m/s 687 mmHg 19%
    18:00 +37°C° 0 mm 5 m/s 687 mmHg 22%
    19:00 +36°C° 0 mm 5 m/s 687 mmHg 26%
    20:00 +35°C° 0 mm 4 m/s 687 mmHg 29%
    21:00 +34°C° 0 mm 3 m/s 687 mmHg 32%
    22:00 +32°C° 0 mm 2 m/s 688 mmHg 35%
    23:00 +31°C° 0 mm 2 m/s 687 mmHg 37%

    25 Iulie, Marţi

    Timp Temperatura Precipitaţii Vânt Presiune Umiditate
    00:00 +30°C° 0 mm 2 m/s 687 mmHg 39%
    01:00 +30°C° 0 mm 2 m/s 686 mmHg 40%
    02:00 +29°C° 0 mm 2 m/s 686 mmHg 44%
    03:00 +28°C° 0 mm 2 m/s 686 mmHg 47%
    04:00 +27°C° 0 mm 2 m/s 685 mmHg 50%
    05:00 +27°C° 0 mm 2 m/s 685 mmHg 52%
    06:00 +27°C° 0 mm 2 m/s 685 mmHg 53%
    07:00 +27°C° 0 mm 2 m/s 686 mmHg 54%
    08:00 +28°C° 0 mm 2 m/s 686 mmHg 50%
    09:00 +29°C° 0 mm 2 m/s 686 mmHg 45%
    10:00 +30°C° 0 mm 3 m/s 686 mmHg 41%
    11:00 +31°C° 0 mm 2 m/s 686 mmHg 36%
    12:00 +32°C° 0 mm 2 m/s 686 mmHg 32%
    13:00 +35°C° 0 mm 2 m/s 686 mmHg 28%
    14:00 +35°C° 0 mm 3 m/s 686 mmHg 25%
    15:00 +36°C° 0 mm 4 m/s 686 mmHg 21%
    16:00 +37°C° 0 mm 5 m/s 686 mmHg 18%
    17:00 +36°C° 0 mm 5 m/s 686 mmHg 21%
    18:00 +35°C° 0 mm 6 m/s 686 mmHg 24%
    19:00 +34°C° 0 mm 6 m/s 686 mmHg 27%
    20:00 +32°C° 0 mm 6 m/s 686 mmHg 33%
    21:00 +30°C° 0 mm 5 m/s 686 mmHg 39%
    22:00 +28°C° 0 mm 4 m/s 686 mmHg 45%
    23:00 +27°C° 0 mm 4 m/s 686 mmHg 48%

    26 Iulie, Miercuri

    Timp Temperatura Precipitaţii Vânt Presiune Umiditate
    00:00 +26°C° 0 mm 3 m/s 686 mmHg 51%
    01:00 +26°C° 0 mm 3 m/s 686 mmHg 54%
    02:00 +25°C° 0 mm 3 m/s 685 mmHg 55%
    03:00 +25°C° 0 mm 2 m/s 685 mmHg 57%
    04:00 +24°C° 0 mm 2 m/s 685 mmHg 58%
    05:00 +24°C° 0 mm 2 m/s 685 mmHg 58%
    06:00 +24°C° 0 mm 2 m/s 686 mmHg 58%
    07:00 +24°C° 0 mm 2 m/s 686 mmHg 58%
    08:00 +25°C° 0 mm 2 m/s 687 mmHg 54%
    09:00 +26°C° 0 mm 1 m/s 687 mmHg 50%
    10:00 +27°C° 0 mm 1 m/s 687 mmHg 45%
    11:00 +29°C° 0 mm 2 m/s 687 mmHg 40%
    12:00 +30°C° 0 mm 3 m/s 687 mmHg 35%
    13:00 +33°C° 0 mm 4 m/s 687 mmHg 30%
    14:00 +33°C° 0 mm 4 m/s 687 mmHg 29%
    15:00 +34°C° 0 mm 4 m/s 687 mmHg 27%
    16:00 +34°C° 0 mm 5 m/s 687 mmHg 25%
    17:00 +33°C° 0 mm 5 m/s 687 mmHg 27%
    18:00 +32°C° 0 mm 5 m/s 687 mmHg 29%
    19:00 +30°C° 0 mm 6 m/s 687 mmHg 31%
    20:00 +29°C° 0 mm 5 m/s 687 mmHg 35%
    21:00 +28°C° 0 mm 4 m/s 687 mmHg 39%
    22:00 +26°C° 0 mm 3 m/s 688 mmHg 42%
    23:00 +26°C° 0 mm 3 m/s 688 mmHg 44%
    Arată mai mult